Theta_e
329 328 327 326 325 324 323 322 321 321 318 313 310 309 308 307 306 305 304 304 303 302 302 301 300 300 299 299 299 299 299 298 298 298 297 297 297 296 296 296 296 296
328 327 326 325 324 323 322 322 320 320 317 310 307 307 306 305 304 302 302 302 301 300 300 299 299 299 299 299 299 299 298 298 298 297 297 296 296 296 296 296 295 295
327 326 325 324 324 322 322 321 319 318 315 307 304 304 303 303 302 301 301 300 299 299 299 299 299 299 299 298 298 298 297 297 297 296 296 296 296 295 295 295 295 295
326 325 324 323 322 321 321 320 318 317 312 304 302 302 301 301 301 300 300 299 298 298 298 298 298 298 298 298 298 298 297 296 296 296 296 296 295 295 295 294 295 294
325 324 322 322 321 320 319 318 316 315 310 302 300 301 300 300 300 299 299 298 298 298 298 298 298 298 298 297 297 297 296 296 296 295 296 295 295 295 295 294 294 294
322 321 321 320 319 319 318 316 315 314 307 301 300 299 299 299 299 298 298 298 298 298 298 298 298 297 297 297 297 297 296 295 295 295 295 295 295 294 295 294 294 294
321 320 319 318 318 317 316 315 314 310 303 300 299 298 298 298 298 298 298 297 298 297 297 297 297 297 297 296 296 296 296 295 295 295 295 294 294 294 294 294 294 294
319 318 318 317 316 316 315 315 313 306 301 299 299 298 298 297 297 297 297 297 297 297 297 297 297 297 296 296 296 296 296 295 294 295 295 294 294 294 294 294 294 294
317 317 317 316 315 314 314 313 309 302 299 299 298 298 297 297 297 297 297 297 297 296 297 296 296 296 296 296 296 296 295 295 294 294 294 294 294 294 293 293 293 293
316 315 315 314 314 313 312 310 304 299 299 299 298 298 297 296 297 296 297 297 296 296 296 296 296 296 296 296 295 295 295 295 295 294 294 294 293 293 293 293 293 293
314 313 313 313 312 311 310 306 301 299 299 299 298 297 297 296 296 296 296 296 296 296 296 296 296 295 295 295 295 296 295 295 294 294 294 293 293 293 293 293 293 292
312 311 311 311 310 309 306 302 299 299 299 298 297 297 296 296 296 296 296 296 295 295 295 295 295 296 295 295 295 296 296 295 294 294 293 293 293 293 292 292 292 292
310 309 309 309 308 306 302 300 299 299 299 298 297 296 296 295 295 296 295 295 295 295 295 295 295 295 295 295 296 296 295 295 294 294 293 293 293 293 293 292 292 291
309 308 307 307 307 304 301 299 299 299 298 297 297 296 295 295 295 295 295 295 295 295 295 295 295 295 295 296 296 295 295 295 294 294 294 294 293 294 294 293 292 292
310 309 308 307 305 303 301 300 299 299 298 297 297 295 295 295 295 295 295 295 295 295 295 294 294 295 295 296 296 295 295 295 295 295 295 294 294 294 295 294 293 292
309 309 308 307 305 303 302 301 299 298 297 297 296 295 295 294 295 295 294 295 295 295 295 294 294 295 295 296 296 295 295 295 295 295 295 295 294 295 295 295 293 292
309 309 309 307 305 303 302 301 299 298 297 297 296 295 294 294 294 294 294 294 294 295 294 294 294 295 295 295 295 295 295 295 295 295 295 295 295 295 295 295 294 292
310 310 309 307 305 303 301 300 299 298 297 297 296 295 294 294 294 294 294 294 294 294 294 294 294 294 295 295 295 294 295 296 296 296 296 296 296 295 295 295 293 292
310 309 307 305 303 302 301 299 298 297 297 296 296 295 294 294 294 294 294 294 294 294 294 294 294 294 294 295 295 295 295 296 296 297 296 295 295 295 295 294 293 291
310 308 306 304 303 302 301 300 298 297 297 297 295 294 294 294 294 294 294 294 294 294 294 294 294 294 294 294 295 295 295 296 296 296 296 295 295 295 295 294 292 291
309 308 306 304 303 302 302 300 298 297 297 297 296 294 294 294 294 294 294 294 294 294 294 294 294 294 294 294 295 295 295 295 295 295 295 295 294 294 294 293 292 291
309 307 306 304 303 302 301 300 298 298 298 298 296 294 294 294 294 294 294 294 294 294 294 294 294 293 294 294 294 294 294 294 294 294 294 294 294 294 293 292 291 291
309 307 305 304 302 302 301 299 298 298 298 297 296 294 293 293 293 294 294 294 294 294 294 293 293 293 293 293 293 293 293 293 293 294 294 294 294 293 293 292 291 291
309 307 305 304 302 301 300 299 299 299 298 297 296 294 293 293 293 294 294 294 294 294 293 293 293 293 293 292 292 292 292 292 292 293 293 293 293 292 292 291 291 291
309 307 305 304 302 301 300 299 299 298 297 297 295 293 293 293 293 294 294 293 293 293 293 292 293 293 293 292 292 292 292 292 292 292 292 292 292 291 291 291 291 291
309 307 306 304 302 301 300 299 299 298 297 296 295 293 293 293 293 293 293 293 293 293 293 292 292 292 292 292 292 292 292 292 291 291 291 291 291 291 291 290 291 291
Wind_Speed
19 18 17 15 13 12 10 9 8 8 7 6 7 8 8 8 7 5 4 3 1 0 1 2 2 2 2 3 3 3 3 3 4 5 5 5 6 6 7 8 9 10
18 17 16 14 13 12 10 9 8 9 7 8 9 9 9 8 7 6 4 2 1 0 0 1 1 1 1 2 2 3 3 3 4 5 4 5 6 6 7 8 9 10
17 16 15 14 13 12 10 10 10 10 7 10 11 10 10 9 7 6 4 3 2 1 1 1 1 1 2 2 2 3 3 3 5 6 5 5 6 6 7 9 9 10
16 15 14 13 13 12 11 12 12 10 8 12 12 11 10 8 7 6 5 4 3 3 3 2 2 2 2 2 2 3 3 5 7 6 5 6 7 7 8 8 9 10
15 14 14 13 13 12 12 13 12 9 10 13 12 11 10 8 7 6 5 5 4 4 4 3 3 2 2 2 3 3 4 5 7 6 5 7 8 7 8 8 9 10
15 14 14 13 13 12 13 13 11 9 12 13 12 11 9 8 7 6 5 5 4 4 4 3 3 3 2 2 3 4 5 5 6 6 5 7 8 8 8 8 9 10
15 15 14 14 13 13 13 13 11 11 14 13 12 10 9 8 7 6 5 5 4 4 4 3 3 3 2 2 3 3 4 6 7 6 6 7 8 7 8 9 10 10
15 15 15 15 14 14 13 12 11 14 14 13 12 10 9 7 6 6 5 5 4 4 4 3 3 3 2 3 3 3 4 7 7 7 7 7 8 8 10 10 10 11
16 16 16 15 14 14 13 12 14 16 15 13 12 10 9 7 6 6 6 5 5 4 4 4 3 3 2 2 3 3 5 7 7 7 8 8 9 9 10 10 10 11
17 17 16 16 15 14 13 15 16 16 14 12 10 9 8 8 7 7 6 6 5 5 4 4 3 3 2 2 3 4 5 7 7 8 8 9 10 10 10 10 10 11
15 16 16 16 15 15 15 17 17 16 14 12 10 9 8 9 8 8 7 6 6 5 4 4 4 3 2 3 4 5 5 6 6 7 8 9 10 11 11 10 11 11
15 16 16 16 16 17 17 18 17 15 14 11 10 9 9 9 9 9 8 7 6 6 5 5 4 3 3 3 4 5 5 5 6 6 8 9 9 10 10 10 11 11
16 16 17 17 18 18 18 18 17 15 13 11 10 9 9 10 9 9 8 8 7 6 6 5 4 4 4 4 4 4 5 5 5 6 7 8 8 9 10 11 12 12
17 16 17 18 18 19 18 18 17 15 12 10 10 10 10 10 9 8 8 8 7 7 6 5 4 4 4 4 3 4 5 5 5 5 6 6 7 8 9 11 12 13
17 16 17 18 18 19 19 18 16 14 12 10 10 11 11 11 10 9 8 8 8 7 6 6 5 4 4 4 3 4 5 5 5 5 4 4 5 6 8 9 11 12
17 17 17 18 19 19 19 18 16 14 12 11 10 11 11 11 10 10 9 8 8 7 7 6 5 5 4 4 4 4 4 5 4 4 4 3 4 5 6 8 11 12
19 19 19 19 20 20 19 18 16 14 13 11 11 11 12 11 11 10 10 9 8 7 7 6 6 6 5 5 5 4 4 4 3 3 4 3 3 4 5 8 10 11
21 20 20 21 21 21 20 18 16 15 13 12 11 12 12 12 11 11 11 10 9 8 7 7 6 6 6 6 5 5 4 2 2 3 3 2 1 3 5 7 8 10
22 21 22 23 22 21 20 18 17 15 13 12 12 12 12 12 12 12 11 10 9 8 7 7 7 7 7 6 5 5 3 2 1 2 1 2 2 3 6 7 8 8
23 23 23 24 23 21 20 18 17 15 13 12 12 12 13 13 13 12 12 11 9 8 8 7 7 7 7 6 5 4 3 2 1 0 2 3 3 5 6 8 8 8
24 24 25 24 23 21 20 19 17 16 14 13 12 13 13 13 13 12 11 10 9 9 8 8 8 8 7 6 5 4 3 2 1 2 3 4 5 6 6 8 8 7
25 26 26 25 24 23 21 20 19 17 15 13 13 14 14 14 13 12 11 10 10 9 8 8 8 8 7 6 6 5 4 3 2 3 4 5 6 6 6 7 7 7
26 26 26 26 25 24 22 21 19 17 15 14 14 15 15 14 13 13 12 11 10 10 9 8 8 8 7 6 6 5 4 4 4 5 5 6 6 6 6 6 6 7
26 26 27 26 26 24 23 21 20 18 16 14 14 15 15 14 14 13 13 12 11 10 9 8 8 8 7 6 5 4 4 4 5 5 6 7 7 6 6 6 6 6
26 26 27 27 26 25 23 21 20 19 17 15 15 16 15 15 14 14 13 13 12 11 10 9 8 7 7 6 6 5 4 4 4 5 6 6 6 6 5 5 5 5
25 26 27 27 26 25 23 22 21 20 18 17 17 17 16 15 15 14 14 13 13 11 10 9 7 7 6 6 6 5 4 4 3 4 5 5 5 5 4 4 4 4
Wind_Direction
223 231 237 239 243 246 251 261 276 296 289 238 201 183 170 163 160 162 170 171 164 335 2 355 353 1 9 27 31 26 29 33 43 48 41 38 42 42 42 41 38 34
227 233 236 239 240 241 246 256 274 292 273 215 191 178 169 166 164 165 172 172 172 200 27 18 15 28 40 57 54 40 40 52 64 68 62 60 60 54 49 46 42 38
232 236 238 240 240 240 245 255 275 286 248 202 187 177 173 170 171 173 176 179 189 187 162 147 133 110 90 83 67 56 59 67 76 80 80 78 74 64 57 52 44 40
236 237 236 238 237 240 247 256 273 276 224 195 185 178 177 176 180 185 184 185 190 183 175 168 153 130 109 97 83 78 80 81 83 86 88 87 81 70 63 54 43 39
236 234 233 235 235 239 247 256 269 259 210 193 184 179 180 182 188 193 192 190 188 184 183 176 157 139 124 115 101 93 93 91 93 95 93 88 82 70 63 54 42 39
231 230 231 233 235 240 248 259 264 238 202 191 184 181 184 188 193 194 194 189 184 185 185 177 167 157 146 125 103 100 103 99 101 106 98 86 79 68 60 52 43 40
232 232 232 234 235 238 248 258 248 214 196 190 186 185 187 192 194 190 190 186 178 178 174 174 174 165 149 122 105 110 110 103 104 109 101 86 77 64 57 50 42 39
236 234 233 233 234 236 245 247 223 199 193 192 189 187 187 191 193 188 186 183 176 171 166 166 166 159 143 126 125 122 112 106 105 103 94 83 75 64 57 50 44 39
237 235 233 231 232 235 238 224 202 193 194 195 194 191 188 188 190 188 184 178 172 169 164 161 158 150 138 134 138 125 110 109 104 96 87 80 74 67 62 55 46 38
235 231 227 227 229 229 220 203 194 193 194 196 199 200 195 190 187 185 181 174 167 166 163 161 160 154 144 140 138 127 117 113 105 94 86 81 77 71 65 56 45 36
225 219 216 218 220 213 202 195 194 196 196 197 203 206 201 193 187 182 178 172 167 167 170 171 170 166 157 143 136 133 128 121 110 95 86 81 77 72 64 54 43 34
211 208 206 208 206 199 195 195 198 200 201 200 202 204 201 191 185 182 177 173 175 178 182 186 182 171 162 150 141 138 137 131 117 98 86 78 73 68 59 50 42 31
206 203 200 197 196 195 196 198 201 204 206 202 196 196 195 189 185 183 178 176 183 189 189 190 185 172 163 159 150 142 140 138 124 105 89 76 67 60 49 39 33 27
203 198 195 192 194 197 199 202 204 206 206 202 194 190 190 187 186 187 185 183 186 191 192 190 185 179 171 167 162 144 137 139 132 116 96 78 65 53 41 30 24 21
200 195 193 193 196 199 202 204 205 205 204 200 194 189 188 188 187 188 191 192 190 189 191 191 188 183 176 173 168 149 140 142 139 129 112 82 62 48 31 20 17 15
197 195 195 196 198 201 204 205 206 205 201 198 195 191 189 190 189 188 190 192 192 192 192 193 190 186 184 179 170 158 149 140 130 128 121 85 53 38 18 7 9 8
196 197 198 200 201 203 206 207 209 208 203 198 197 194 191 192 191 189 189 189 191 194 194 194 193 190 190 184 168 161 160 137 112 110 105 77 38 17 2 357 360 0
199 200 201 201 202 204 206 208 211 212 209 204 200 196 194 193 190 188 189 188 188 192 194 195 197 195 193 188 173 166 173 156 107 94 85 66 16 340 339 345 351 355
202 202 201 200 200 203 206 209 212 215 216 211 204 199 195 193 190 187 188 188 186 190 195 196 196 196 194 186 178 176 185 187 123 88 37 353 312 299 315 334 345 350
204 203 200 199 201 205 208 211 214 216 216 213 208 203 198 194 191 188 188 188 186 187 193 197 195 195 192 183 178 184 192 195 173 27 330 326 305 289 307 330 340 344
205 203 201 201 204 207 210 212 214 214 212 211 208 203 198 194 191 190 189 188 187 185 188 194 192 190 187 182 182 193 200 205 232 274 294 308 300 291 307 328 335 339
206 203 202 204 206 208 210 211 213 213 211 208 204 199 196 193 190 191 191 189 186 183 184 188 187 183 182 184 192 206 216 225 250 270 280 291 294 294 307 321 328 331
207 205 204 206 207 208 210 212 214 215 213 210 205 199 195 192 190 189 188 188 185 181 179 182 182 179 178 181 191 208 225 244 257 267 275 282 286 290 299 310 318 323
208 208 208 208 209 210 211 213 216 217 217 213 207 202 196 192 191 189 185 183 182 179 176 178 184 183 178 177 182 195 216 237 253 262 268 273 276 280 287 301 311 318
211 210 211 211 211 213 214 216 218 218 218 213 206 202 198 193 191 191 187 182 179 178 175 177 185 187 181 180 183 190 203 217 238 253 258 264 269 271 280 296 304 312
214 213 212 212 214 215 216 218 218 217 216 211 203 199 198 196 191 189 188 183 178 178 178 178 183 188 188 187 186 187 195 203 221 241 250 257 262 264 276 288 287 299